Year,Month,Day,Hour,Minute,Value (Times are PST for insolation in W/m^2)
2010,12,20,00,00,0.00
2010,12,20,00,01,0.00
2010,12,20,00,02,0.00
2010,12,20,00,03,0.00
2010,12,20,00,04,0.00
2010,12,20,00,05,0.00
2010,12,20,00,06,0.00
2010,12,20,00,07,0.00
2010,12,20,00,08,0.00
2010,12,20,00,09,0.00
2010,12,20,00,10,0.00
2010,12,20,00,11,0.00
2010,12,20,00,12,0.00
2010,12,20,00,13,0.00
2010,12,20,00,14,0.00
2010,12,20,00,15,0.00
2010,12,20,00,16,0.00
2010,12,20,00,17,0.00
2010,12,20,00,18,0.00
2010,12,20,00,19,0.00
2010,12,20,00,20,0.00
2010,12,20,00,21,0.00
2010,12,20,00,22,0.00
2010,12,20,00,23,0.00
2010,12,20,00,24,0.00
2010,12,20,00,25,0.00
2010,12,20,00,26,0.00
2010,12,20,00,27,0.00
2010,12,20,00,28,0.00
2010,12,20,00,29,0.00
2010,12,20,00,30,0.00
2010,12,20,00,31,0.00
2010,12,20,00,32,0.00
2010,12,20,00,33,0.00
2010,12,20,00,34,0.00
2010,12,20,00,35,0.00
2010,12,20,00,36,0.00
2010,12,20,00,37,0.00
2010,12,20,00,38,0.00
2010,12,20,00,39,0.00
2010,12,20,00,40,0.00
2010,12,20,00,41,0.00
2010,12,20,00,42,0.00
2010,12,20,00,43,0.00
2010,12,20,00,44,0.00
2010,12,20,00,45,0.00
2010,12,20,00,46,0.00
2010,12,20,00,47,0.00
2010,12,20,00,48,0.00
2010,12,20,00,49,0.00
2010,12,20,00,50,0.00
2010,12,20,00,51,0.00
2010,12,20,00,52,0.00
2010,12,20,00,53,0.00
2010,12,20,00,54,0.00
2010,12,20,00,55,0.00
2010,12,20,00,56,0.00
2010,12,20,00,57,0.00
2010,12,20,00,58,0.00
2010,12,20,00,59,0.00
2010,12,20,01,00,0.00
2010,12,20,01,01,0.00
2010,12,20,01,02,0.00
2010,12,20,01,03,0.00
2010,12,20,01,04,0.00
2010,12,20,01,05,0.00
2010,12,20,01,06,0.00
2010,12,20,01,07,0.00
2010,12,20,01,08,0.00
2010,12,20,01,09,0.00
2010,12,20,01,10,0.00
2010,12,20,01,11,0.00
2010,12,20,01,12,0.00
2010,12,20,01,13,0.00
2010,12,20,01,14,0.00
2010,12,20,01,15,0.00
2010,12,20,01,16,0.00
2010,12,20,01,17,0.00
2010,12,20,01,18,0.00
2010,12,20,01,19,0.00
2010,12,20,01,20,0.00
2010,12,20,01,21,0.00
2010,12,20,01,22,0.00
2010,12,20,01,23,0.00
2010,12,20,01,24,0.00
2010,12,20,01,25,0.00
2010,12,20,01,26,0.00
2010,12,20,01,27,0.00
2010,12,20,01,28,0.00
2010,12,20,01,29,0.00
2010,12,20,01,30,0.00
2010,12,20,01,31,0.00
2010,12,20,01,32,0.00
2010,12,20,01,33,0.00
2010,12,20,01,34,0.00
2010,12,20,01,35,0.00
2010,12,20,01,36,0.00
2010,12,20,01,37,0.00
2010,12,20,01,38,0.00
2010,12,20,01,39,0.00
2010,12,20,01,40,0.00
2010,12,20,01,41,0.00
2010,12,20,01,42,0.00
2010,12,20,01,43,0.00
2010,12,20,01,44,0.00
2010,12,20,01,45,0.00
2010,12,20,01,46,0.00
2010,12,20,01,47,0.00
2010,12,20,01,48,0.00
2010,12,20,01,49,0.00
2010,12,20,01,50,0.00
2010,12,20,01,51,0.00
2010,12,20,01,52,0.00
2010,12,20,01,53,0.00
2010,12,20,01,54,0.00
2010,12,20,01,55,0.00
2010,12,20,01,56,0.00
2010,12,20,01,57,0.00
2010,12,20,01,58,0.00
2010,12,20,01,59,0.00
2010,12,20,02,00,0.00
2010,12,20,02,01,0.00
2010,12,20,02,02,0.00
2010,12,20,02,03,0.00
2010,12,20,02,04,0.00
2010,12,20,02,05,0.00
2010,12,20,02,06,0.00
2010,12,20,02,07,0.00
2010,12,20,02,08,0.00
2010,12,20,02,09,0.00
2010,12,20,02,10,0.00
2010,12,20,02,11,0.00
2010,12,20,02,12,0.00
2010,12,20,02,13,0.00
2010,12,20,02,14,0.00
2010,12,20,02,15,0.00
2010,12,20,02,16,0.00
2010,12,20,02,17,0.00
2010,12,20,02,18,0.00
2010,12,20,02,19,0.00
2010,12,20,02,20,0.00
2010,12,20,02,21,0.00
2010,12,20,02,22,0.00
2010,12,20,02,23,0.00
2010,12,20,02,24,0.00
2010,12,20,02,25,0.00
2010,12,20,02,26,0.00
2010,12,20,02,27,0.00
2010,12,20,02,28,0.00
2010,12,20,02,29,0.00
2010,12,20,02,30,0.00
2010,12,20,02,31,0.00
2010,12,20,02,32,0.00
2010,12,20,02,33,0.00
2010,12,20,02,34,0.00
2010,12,20,02,35,0.00
2010,12,20,02,36,0.00
2010,12,20,02,37,0.00
2010,12,20,02,38,0.00
2010,12,20,02,39,0.00
2010,12,20,02,40,0.00
2010,12,20,02,41,0.00
2010,12,20,02,42,0.00
2010,12,20,02,43,0.00
2010,12,20,02,44,0.00
2010,12,20,02,45,0.00
2010,12,20,02,46,0.00
2010,12,20,02,47,0.00
2010,12,20,02,48,0.00
2010,12,20,02,49,0.00
2010,12,20,02,50,0.00
2010,12,20,02,51,0.00
2010,12,20,02,52,0.00
2010,12,20,02,53,0.00
2010,12,20,02,54,0.00
2010,12,20,02,55,0.00
2010,12,20,02,56,0.00
2010,12,20,02,57,0.00
2010,12,20,02,58,0.00
2010,12,20,02,59,0.00
2010,12,20,03,00,0.00
2010,12,20,03,01,0.00
2010,12,20,03,02,0.00
2010,12,20,03,03,0.00
2010,12,20,03,04,0.00
2010,12,20,03,05,0.00
2010,12,20,03,06,0.00
2010,12,20,03,07,0.00
2010,12,20,03,08,0.00
2010,12,20,03,09,0.00
2010,12,20,03,10,0.00
2010,12,20,03,11,0.00
2010,12,20,03,12,0.00
2010,12,20,03,13,0.00
2010,12,20,03,14,0.00
2010,12,20,03,15,0.00
2010,12,20,03,16,0.00
2010,12,20,03,17,0.00
2010,12,20,03,18,0.00
2010,12,20,03,19,0.00
2010,12,20,03,20,0.00
2010,12,20,03,21,0.00
2010,12,20,03,22,0.00
2010,12,20,03,23,0.00
2010,12,20,03,24,0.00
2010,12,20,03,25,0.00
2010,12,20,03,26,0.00
2010,12,20,03,27,0.00
2010,12,20,03,28,0.00
2010,12,20,03,29,0.00
2010,12,20,03,30,0.00
2010,12,20,03,31,0.00
2010,12,20,03,32,0.00
2010,12,20,03,33,0.00
2010,12,20,03,34,0.00
2010,12,20,03,35,0.00
2010,12,20,03,36,0.00
2010,12,20,03,37,0.00
2010,12,20,03,38,0.00
2010,12,20,03,39,0.00
2010,12,20,03,40,0.00
2010,12,20,03,41,0.00
2010,12,20,03,42,0.00
2010,12,20,03,43,0.00
2010,12,20,03,44,0.00
2010,12,20,03,45,0.00
2010,12,20,03,46,0.00
2010,12,20,03,47,0.00
2010,12,20,03,48,0.00
2010,12,20,03,49,0.00
2010,12,20,03,50,0.00
2010,12,20,03,51,0.00
2010,12,20,03,52,0.00
2010,12,20,03,53,0.00
2010,12,20,03,54,0.00
2010,12,20,03,55,0.00
2010,12,20,03,56,0.00
2010,12,20,03,57,0.00
2010,12,20,03,58,0.00
2010,12,20,03,59,0.00
2010,12,20,04,00,0.00
2010,12,20,04,01,0.00
2010,12,20,04,02,0.00
2010,12,20,04,03,0.00
2010,12,20,04,04,0.00
2010,12,20,04,05,0.00
2010,12,20,04,06,0.00
2010,12,20,04,07,0.00
2010,12,20,04,08,0.00
2010,12,20,04,09,0.00
2010,12,20,04,10,0.00
2010,12,20,04,11,0.00
2010,12,20,04,12,0.00
2010,12,20,04,13,0.00
2010,12,20,04,14,0.00
2010,12,20,04,15,0.00
2010,12,20,04,16,0.00
2010,12,20,04,17,0.00
2010,12,20,04,18,0.00
2010,12,20,04,19,0.00
2010,12,20,04,20,0.00
2010,12,20,04,21,0.00
2010,12,20,04,22,0.00
2010,12,20,04,23,0.00
2010,12,20,04,24,0.00
2010,12,20,04,25,0.00
2010,12,20,04,26,0.00
2010,12,20,04,27,0.00
2010,12,20,04,28,0.00
2010,12,20,04,29,0.00
2010,12,20,04,30,0.00
2010,12,20,04,31,0.00
2010,12,20,04,32,0.00
2010,12,20,04,33,0.00
2010,12,20,04,34,0.00
2010,12,20,04,35,0.00
2010,12,20,04,36,0.00
2010,12,20,04,37,0.00
2010,12,20,04,38,0.00
2010,12,20,04,39,0.00
2010,12,20,04,40,0.00
2010,12,20,04,41,0.00
2010,12,20,04,42,0.00
2010,12,20,04,43,0.00
2010,12,20,04,44,0.00
2010,12,20,04,45,0.00
2010,12,20,04,46,0.00
2010,12,20,04,47,0.00
2010,12,20,04,48,0.00
2010,12,20,04,49,0.00
2010,12,20,04,50,0.00
2010,12,20,04,51,0.00
2010,12,20,04,52,0.00
2010,12,20,04,53,0.00
2010,12,20,04,54,0.00
2010,12,20,04,55,0.00
2010,12,20,04,56,0.00
2010,12,20,04,57,0.00
2010,12,20,04,58,0.00
2010,12,20,04,59,0.00
2010,12,20,05,00,0.00
2010,12,20,05,01,0.00
2010,12,20,05,02,0.00
2010,12,20,05,03,0.00
2010,12,20,05,04,0.00
2010,12,20,05,05,0.00
2010,12,20,05,06,0.00
2010,12,20,05,07,0.00
2010,12,20,05,08,0.00
2010,12,20,05,09,0.00
2010,12,20,05,10,0.00
2010,12,20,05,11,0.00
2010,12,20,05,12,0.00
2010,12,20,05,13,0.00
2010,12,20,05,14,0.00
2010,12,20,05,15,0.00
2010,12,20,05,16,0.00
2010,12,20,05,17,0.00
2010,12,20,05,18,0.00
2010,12,20,05,19,0.00
2010,12,20,05,20,0.00
2010,12,20,05,21,0.00
2010,12,20,05,22,0.00
2010,12,20,05,23,0.00
2010,12,20,05,24,0.00
2010,12,20,05,25,0.00
2010,12,20,05,26,0.00
2010,12,20,05,27,0.00
2010,12,20,05,28,0.00
2010,12,20,05,29,0.00
2010,12,20,05,30,0.00
2010,12,20,05,31,0.00
2010,12,20,05,32,0.00
2010,12,20,05,33,0.00
2010,12,20,05,34,0.00
2010,12,20,05,35,0.00
2010,12,20,05,36,0.00
2010,12,20,05,37,0.00
2010,12,20,05,38,0.00
2010,12,20,05,39,0.00
2010,12,20,05,40,0.00
2010,12,20,05,41,0.00
2010,12,20,05,42,0.00
2010,12,20,05,43,0.00
2010,12,20,05,44,0.00
2010,12,20,05,45,0.00
2010,12,20,05,46,0.00
2010,12,20,05,47,0.00
2010,12,20,05,48,0.00
2010,12,20,05,49,0.00
2010,12,20,05,50,0.00
2010,12,20,05,51,0.00
2010,12,20,05,52,0.00
2010,12,20,05,53,0.00
2010,12,20,05,54,0.00
2010,12,20,05,55,0.00
2010,12,20,05,56,0.00
2010,12,20,05,57,0.00
2010,12,20,05,58,0.00
2010,12,20,05,59,0.00
2010,12,20,06,00,0.00
2010,12,20,06,01,0.00
2010,12,20,06,02,0.00
2010,12,20,06,03,0.00
2010,12,20,06,04,0.00
2010,12,20,06,05,0.00
2010,12,20,06,06,0.00
2010,12,20,06,07,0.00
2010,12,20,06,08,0.00
2010,12,20,06,09,0.00
2010,12,20,06,10,0.00
2010,12,20,06,11,0.00
2010,12,20,06,12,0.00
2010,12,20,06,13,0.00
2010,12,20,06,14,0.00
2010,12,20,06,15,0.00
2010,12,20,06,16,0.00
2010,12,20,06,17,0.00
2010,12,20,06,18,0.00
2010,12,20,06,19,0.00
2010,12,20,06,20,0.00
2010,12,20,06,21,0.00
2010,12,20,06,22,0.00
2010,12,20,06,23,0.00
2010,12,20,06,24,0.00
2010,12,20,06,25,0.00
2010,12,20,06,26,0.00
2010,12,20,06,27,0.00
2010,12,20,06,28,0.00
2010,12,20,06,29,0.00
2010,12,20,06,30,0.00
2010,12,20,06,31,0.00
2010,12,20,06,32,0.00
2010,12,20,06,33,0.00
2010,12,20,06,34,0.00
2010,12,20,06,35,0.00
2010,12,20,06,36,0.00
2010,12,20,06,37,0.00
2010,12,20,06,38,0.00
2010,12,20,06,39,0.00
2010,12,20,06,40,0.00
2010,12,20,06,41,0.00
2010,12,20,06,42,0.00
2010,12,20,06,43,0.00
2010,12,20,06,44,0.00
2010,12,20,06,45,0.00
2010,12,20,06,46,0.00
2010,12,20,06,47,0.00
2010,12,20,06,48,0.00
2010,12,20,06,49,0.00
2010,12,20,06,50,0.00
2010,12,20,06,51,0.00
2010,12,20,06,52,0.00
2010,12,20,06,53,0.00
2010,12,20,06,54,0.00
2010,12,20,06,55,0.00
2010,12,20,06,56,0.00
2010,12,20,06,57,0.00
2010,12,20,06,58,0.00
2010,12,20,06,59,0.00
2010,12,20,07,00,0.00
2010,12,20,07,01,0.00
2010,12,20,07,02,0.00
2010,12,20,07,03,0.00
2010,12,20,07,04,0.00
2010,12,20,07,05,0.00
2010,12,20,07,06,0.00
2010,12,20,07,07,0.00
2010,12,20,07,08,0.00
2010,12,20,07,09,0.00
2010,12,20,07,10,0.00
2010,12,20,07,11,0.00
2010,12,20,07,12,0.00
2010,12,20,07,13,0.00
2010,12,20,07,14,0.00
2010,12,20,07,15,0.00
2010,12,20,07,16,0.00
2010,12,20,07,17,0.00
2010,12,20,07,18,0.00
2010,12,20,07,19,0.00
2010,12,20,07,20,0.00
2010,12,20,07,21,0.00
2010,12,20,07,22,0.00
2010,12,20,07,23,0.00
2010,12,20,07,24,0.00
2010,12,20,07,25,0.00
2010,12,20,07,26,0.00
2010,12,20,07,27,0.00
2010,12,20,07,28,0.00
2010,12,20,07,29,0.00
2010,12,20,07,30,0.00
2010,12,20,07,31,0.00
2010,12,20,07,32,0.00
2010,12,20,07,33,0.00
2010,12,20,07,34,0.00
2010,12,20,07,35,0.00
2010,12,20,07,36,0.00
2010,12,20,07,37,0.00
2010,12,20,07,38,0.00
2010,12,20,07,39,0.00
2010,12,20,07,40,0.00
2010,12,20,07,41,0.00
2010,12,20,07,42,0.00
2010,12,20,07,43,0.00
2010,12,20,07,44,0.00
2010,12,20,07,45,0.00
2010,12,20,07,46,0.00
2010,12,20,07,47,0.00
2010,12,20,07,48,0.00
2010,12,20,07,49,0.00
2010,12,20,07,50,0.00
2010,12,20,07,51,0.00
2010,12,20,07,52,0.00
2010,12,20,07,53,0.00
2010,12,20,07,54,0.00
2010,12,20,07,55,0.00
2010,12,20,07,56,0.00
2010,12,20,07,57,0.00
2010,12,20,07,58,0.00
2010,12,20,07,59,0.00
2010,12,20,08,00,0.00
2010,12,20,08,01,0.00
2010,12,20,08,02,0.00
2010,12,20,08,03,0.00
2010,12,20,08,04,0.00
2010,12,20,08,05,0.00
2010,12,20,08,06,0.00
2010,12,20,08,07,0.00
2010,12,20,08,08,0.00
2010,12,20,08,09,0.00
2010,12,20,08,10,0.00
2010,12,20,08,11,0.00
2010,12,20,08,12,0.00
2010,12,20,08,13,0.00
2010,12,20,08,14,0.00
2010,12,20,08,15,4.20
2010,12,20,08,16,5.00
2010,12,20,08,17,5.00
2010,12,20,08,18,5.00
2010,12,20,08,19,5.00
2010,12,20,08,20,5.00
2010,12,20,08,21,5.00
2010,12,20,08,22,5.00
2010,12,20,08,23,5.00
2010,12,20,08,24,5.90
2010,12,20,08,25,7.00
2010,12,20,08,26,7.00
2010,12,20,08,27,8.80
2010,12,20,08,28,9.40
2010,12,20,08,29,11.40
2010,12,20,08,30,12.00
2010,12,20,08,31,12.00
2010,12,20,08,32,12.00
2010,12,20,08,33,12.00
2010,12,20,08,34,12.40
2010,12,20,08,35,14.00
2010,12,20,08,36,13.00
2010,12,20,08,37,12.00
2010,12,20,08,38,11.20
2010,12,20,08,39,11.00
2010,12,20,08,40,11.00
2010,12,20,08,41,11.40
2010,12,20,08,42,12.00
2010,12,20,08,43,12.00
2010,12,20,08,44,12.00
2010,12,20,08,45,11.10
2010,12,20,08,46,12.50
2010,12,20,08,47,14.00
2010,12,20,08,48,15.10
2010,12,20,08,49,17.40
2010,12,20,08,50,18.00
2010,12,20,08,51,18.00
2010,12,20,08,52,18.30
2010,12,20,08,53,19.00
2010,12,20,08,54,19.00
2010,12,20,08,55,19.00
2010,12,20,08,56,19.00
2010,12,20,08,57,19.00
2010,12,20,08,58,19.00
2010,12,20,08,59,19.80
2010,12,20,09,00,19.80
2010,12,20,09,01,19.00
2010,12,20,09,02,18.10
2010,12,20,09,03,17.70
2010,12,20,09,04,15.40
2010,12,20,09,05,13.10
2010,12,20,09,06,12.00
2010,12,20,09,07,12.00
2010,12,20,09,08,12.00
2010,12,20,09,09,12.00
2010,12,20,09,10,12.00
2010,12,20,09,11,12.00
2010,12,20,09,12,12.00
2010,12,20,09,13,11.20
2010,12,20,09,14,10.80
2010,12,20,09,15,9.00
2010,12,20,09,16,8.30
2010,12,20,09,17,8.00
2010,12,20,09,18,10.30
2010,12,20,09,19,11.80
2010,12,20,09,20,13.90
2010,12,20,09,21,14.50
2010,12,20,09,22,16.00
2010,12,20,09,23,14.90
2010,12,20,09,24,14.00
2010,12,20,09,25,14.00
2010,12,20,09,26,15.70
2010,12,20,09,27,14.50
2010,12,20,09,28,16.80
2010,12,20,09,29,18.60
2010,12,20,09,30,20.40
2010,12,20,09,31,22.70
2010,12,20,09,32,24.90
2010,12,20,09,33,24.40
2010,12,20,09,34,23.00
2010,12,20,09,35,21.90
2010,12,20,09,36,19.60
2010,12,20,09,37,18.10
2010,12,20,09,38,14.00
2010,12,20,09,39,13.40
2010,12,20,09,40,12.00
2010,12,20,09,41,12.00
2010,12,20,09,42,13.50
2010,12,20,09,43,14.00
2010,12,20,09,44,14.30
2010,12,20,09,45,16.00
2010,12,20,09,46,17.40
2010,12,20,09,47,19.00
2010,12,20,09,48,20.60
2010,12,20,09,49,24.80
2010,12,20,09,50,28.40
2010,12,20,09,51,30.00
2010,12,20,09,52,30.00
2010,12,20,09,53,30.00
2010,12,20,09,54,28.40
2010,12,20,09,55,29.80
2010,12,20,09,56,27.60
2010,12,20,09,57,25.60
2010,12,20,09,58,25.00
2010,12,20,09,59,25.00
2010,12,20,10,00,23.40
2010,12,20,10,01,20.90
2010,12,20,10,02,19.00
2010,12,20,10,03,19.00
2010,12,20,10,04,19.00
2010,12,20,10,05,21.80
2010,12,20,10,06,24.70
2010,12,20,10,07,25.10
2010,12,20,10,08,27.60
2010,12,20,10,09,31.20
2010,12,20,10,10,28.90
2010,12,20,10,11,25.90
2010,12,20,10,12,25.00
2010,12,20,10,13,23.50
2010,12,20,10,14,26.60
2010,12,20,10,15,29.80
2010,12,20,10,16,29.70
2010,12,20,10,17,25.90
2010,12,20,10,18,25.00
2010,12,20,10,19,27.40
2010,12,20,10,20,36.60
2010,12,20,10,21,40.00
2010,12,20,10,22,41.20
2010,12,20,10,23,40.50
2010,12,20,10,24,33.70
2010,12,20,10,25,33.40
2010,12,20,10,26,35.00
2010,12,20,10,27,34.10
2010,12,20,10,28,35.40
2010,12,20,10,29,39.40
2010,12,20,10,30,43.90
2010,12,20,10,31,49.60
2010,12,20,10,32,42.20
2010,12,20,10,33,39.00
2010,12,20,10,34,43.50
2010,12,20,10,35,46.00
2010,12,20,10,36,48.20
2010,12,20,10,37,44.00
2010,12,20,10,38,46.50
2010,12,20,10,39,52.60
2010,12,20,10,40,49.50
2010,12,20,10,41,48.60
2010,12,20,10,42,51.10
2010,12,20,10,43,51.70
2010,12,20,10,44,43.80
2010,12,20,10,45,37.90
2010,12,20,10,46,39.10
2010,12,20,10,47,35.80
2010,12,20,10,48,35.30
2010,12,20,10,49,35.90
2010,12,20,10,50,33.00
2010,12,20,10,51,36.30
2010,12,20,10,52,34.20
2010,12,20,10,53,26.90
2010,12,20,10,54,29.00
2010,12,20,10,55,36.20
2010,12,20,10,56,39.00
2010,12,20,10,57,36.60
2010,12,20,10,58,33.50
2010,12,20,10,59,33.00
2010,12,20,11,00,37.50
2010,12,20,11,01,41.80
2010,12,20,11,02,43.50
2010,12,20,11,03,38.20
2010,12,20,11,04,37.00
2010,12,20,11,05,37.00
2010,12,20,11,06,39.20
2010,12,20,11,07,37.50
2010,12,20,11,08,33.00
2010,12,20,11,09,35.40
2010,12,20,11,10,40.80
2010,12,20,11,11,48.50
2010,12,20,11,12,55.20
2010,12,20,11,13,62.50
2010,12,20,11,14,72.70
2010,12,20,11,15,81.60
2010,12,20,11,16,78.30
2010,12,20,11,17,84.60
2010,12,20,11,18,79.50
2010,12,20,11,19,77.20
2010,12,20,11,20,92.50
2010,12,20,11,21,99.40
2010,12,20,11,22,86.80
2010,12,20,11,23,94.90
2010,12,20,11,24,106.50
2010,12,20,11,25,111.00
2010,12,20,11,26,123.10
2010,12,20,11,27,155.40
2010,12,20,11,28,175.80
2010,12,20,11,29,165.80
2010,12,20,11,30,152.30
2010,12,20,11,31,138.80
2010,12,20,11,32,130.70
2010,12,20,11,33,137.10
2010,12,20,11,34,135.10
2010,12,20,11,35,128.50
2010,12,20,11,36,138.30
2010,12,20,11,37,132.00
2010,12,20,11,38,127.90
2010,12,20,11,39,110.30
2010,12,20,11,40,90.40
2010,12,20,11,41,82.40
2010,12,20,11,42,78.40
2010,12,20,11,43,80.20
2010,12,20,11,44,87.50
2010,12,20,11,45,90.80
2010,12,20,11,46,89.80
2010,12,20,11,47,83.80
2010,12,20,11,48,89.80
2010,12,20,11,49,94.90
2010,12,20,11,50,92.90
2010,12,20,11,51,83.20
2010,12,20,11,52,71.10
2010,12,20,11,53,72.20
2010,12,20,11,54,82.10
2010,12,20,11,55,80.20
2010,12,20,11,56,71.40
2010,12,20,11,57,67.40
2010,12,20,11,58,62.70
2010,12,20,11,59,55.20
2010,12,20,12,00,52.30
2010,12,20,12,01,51.90
2010,12,20,12,02,53.70
2010,12,20,12,03,53.20
2010,12,20,12,04,53.00
2010,12,20,12,05,53.00
2010,12,20,12,06,53.30
2010,12,20,12,07,56.20
2010,12,20,12,08,62.90
2010,12,20,12,09,69.20
2010,12,20,12,10,68.20
2010,12,20,12,11,58.50
2010,12,20,12,12,53.60
2010,12,20,12,13,54.70
2010,12,20,12,14,56.00
2010,12,20,12,15,56.00
2010,12,20,12,16,58.70
2010,12,20,12,17,66.20
2010,12,20,12,18,68.20
2010,12,20,12,19,64.80
2010,12,20,12,20,58.10
2010,12,20,12,21,59.70
2010,12,20,12,22,64.70
2010,12,20,12,23,63.60
2010,12,20,12,24,64.10
2010,12,20,12,25,57.60
2010,12,20,12,26,53.20
2010,12,20,12,27,55.70
2010,12,20,12,28,65.40
2010,12,20,12,29,78.30
2010,12,20,12,30,75.60
2010,12,20,12,31,71.60
2010,12,20,12,32,66.20
2010,12,20,12,33,62.90
2010,12,20,12,34,76.80
2010,12,20,12,35,87.30
2010,12,20,12,36,84.60
2010,12,20,12,37,83.70
2010,12,20,12,38,85.60
2010,12,20,12,39,90.30
2010,12,20,12,40,103.60
2010,12,20,12,41,117.30
2010,12,20,12,42,108.00
2010,12,20,12,43,89.30
2010,12,20,12,44,77.40
2010,12,20,12,45,82.40
2010,12,20,12,46,82.80
2010,12,20,12,47,78.30
2010,12,20,12,48,74.50
2010,12,20,12,49,72.00
2010,12,20,12,50,68.00
2010,12,20,12,51,59.90
2010,12,20,12,52,55.50
2010,12,20,12,53,54.70
2010,12,20,12,54,54.90
2010,12,20,12,55,49.20
2010,12,20,12,56,52.10
2010,12,20,12,57,59.40
2010,12,20,12,58,53.30
2010,12,20,12,59,42.80
2010,12,20,13,00,34.10
2010,12,20,13,01,32.00
2010,12,20,13,02,38.80
2010,12,20,13,03,57.70
2010,12,20,13,04,65.50
2010,12,20,13,05,56.50
2010,12,20,13,06,44.80
2010,12,20,13,07,43.50
2010,12,20,13,08,48.20
2010,12,20,13,09,56.80
2010,12,20,13,10,60.70
2010,12,20,13,11,63.40
2010,12,20,13,12,63.20
2010,12,20,13,13,55.70
2010,12,20,13,14,46.50
2010,12,20,13,15,39.80
2010,12,20,13,16,40.00
2010,12,20,13,17,45.50
2010,12,20,13,18,54.70
2010,12,20,13,19,65.20
2010,12,20,13,20,71.90
2010,12,20,13,21,76.20
2010,12,20,13,22,79.20
2010,12,20,13,23,81.00
2010,12,20,13,24,81.60
2010,12,20,13,25,91.00
2010,12,20,13,26,90.20
2010,12,20,13,27,91.80
2010,12,20,13,28,97.00
2010,12,20,13,29,93.20
2010,12,20,13,30,90.00
2010,12,20,13,31,98.00
2010,12,20,13,32,109.30
2010,12,20,13,33,114.80
2010,12,20,13,34,104.40
2010,12,20,13,35,83.00
2010,12,20,13,36,68.80
2010,12,20,13,37,61.00
2010,12,20,13,38,56.60
2010,12,20,13,39,58.20
2010,12,20,13,40,51.10
2010,12,20,13,41,44.00
2010,12,20,13,42,39.80
2010,12,20,13,43,39.00
2010,12,20,13,44,42.30
2010,12,20,13,45,44.60
2010,12,20,13,46,46.50
2010,12,20,13,47,48.20
2010,12,20,13,48,46.80
2010,12,20,13,49,44.50
2010,12,20,13,50,48.20
2010,12,20,13,51,56.20
2010,12,20,13,52,70.00
2010,12,20,13,53,80.80
2010,12,20,13,54,80.00
2010,12,20,13,55,74.10
2010,12,20,13,56,71.40
2010,12,20,13,57,80.80
2010,12,20,13,58,80.70
2010,12,20,13,59,75.20
2010,12,20,14,00,72.40
2010,12,20,14,01,65.40
2010,12,20,14,02,62.00
2010,12,20,14,03,62.00
2010,12,20,14,04,58.00
2010,12,20,14,05,50.60
2010,12,20,14,06,49.00
2010,12,20,14,07,52.80
2010,12,20,14,08,53.00
2010,12,20,14,09,51.40
2010,12,20,14,10,50.10
2010,12,20,14,11,53.00
2010,12,20,14,12,63.30
2010,12,20,14,13,74.20
2010,12,20,14,14,80.50
2010,12,20,14,15,78.30
2010,12,20,14,16,78.10
2010,12,20,14,17,75.50
2010,12,20,14,18,75.70
2010,12,20,14,19,75.10
2010,12,20,14,20,66.80
2010,12,20,14,21,56.00
2010,12,20,14,22,54.70
2010,12,20,14,23,60.20
2010,12,20,14,24,60.20
2010,12,20,14,25,65.60
2010,12,20,14,26,69.00
2010,12,20,14,27,70.30
2010,12,20,14,28,70.80
2010,12,20,14,29,74.40
2010,12,20,14,30,76.80
2010,12,20,14,31,79.40
2010,12,20,14,32,81.60
2010,12,20,14,33,83.50
2010,12,20,14,34,84.00
2010,12,20,14,35,84.00
2010,12,20,14,36,84.00
2010,12,20,14,37,83.80
2010,12,20,14,38,80.60
2010,12,20,14,39,71.70
2010,12,20,14,40,64.40
2010,12,20,14,41,62.20
2010,12,20,14,42,64.90
2010,12,20,14,43,66.50
2010,12,20,14,44,64.30
2010,12,20,14,45,63.00
2010,12,20,14,46,58.50
2010,12,20,14,47,57.60
2010,12,20,14,48,46.80
2010,12,20,14,49,40.00
2010,12,20,14,50,40.00
2010,12,20,14,51,42.10
2010,12,20,14,52,47.50
2010,12,20,14,53,47.30
2010,12,20,14,54,39.50
2010,12,20,14,55,40.00
2010,12,20,14,56,38.70
2010,12,20,14,57,39.80
2010,12,20,14,58,45.50
2010,12,20,14,59,50.40
2010,12,20,15,00,53.50
2010,12,20,15,01,49.60
2010,12,20,15,02,50.10
2010,12,20,15,03,47.30
2010,12,20,15,04,43.20
2010,12,20,15,05,43.70
2010,12,20,15,06,44.50
2010,12,20,15,07,48.30
2010,12,20,15,08,49.20
2010,12,20,15,09,44.10
2010,12,20,15,10,43.50
2010,12,20,15,11,43.90
2010,12,20,15,12,42.30
2010,12,20,15,13,43.30
2010,12,20,15,14,40.60
2010,12,20,15,15,37.80
2010,12,20,15,16,35.50
2010,12,20,15,17,36.80
2010,12,20,15,18,34.60
2010,12,20,15,19,32.00
2010,12,20,15,20,27.60
2010,12,20,15,21,22.60
2010,12,20,15,22,21.00
2010,12,20,15,23,20.90
2010,12,20,15,24,19.00
2010,12,20,15,25,19.00
2010,12,20,15,26,17.40
2010,12,20,15,27,16.00
2010,12,20,15,28,16.00
2010,12,20,15,29,18.90
2010,12,20,15,30,19.00
2010,12,20,15,31,17.90
2010,12,20,15,32,16.00
2010,12,20,15,33,16.00
2010,12,20,15,34,18.50
2010,12,20,15,35,17.90
2010,12,20,15,36,15.50
2010,12,20,15,37,13.20
2010,12,20,15,38,11.40
2010,12,20,15,39,11.00
2010,12,20,15,40,11.00
2010,12,20,15,41,8.80
2010,12,20,15,42,7.60
2010,12,20,15,43,9.00
2010,12,20,15,44,9.00
2010,12,20,15,45,9.00
2010,12,20,15,46,9.00
2010,12,20,15,47,7.00
2010,12,20,15,48,7.00
2010,12,20,15,49,7.00
2010,12,20,15,50,5.80
2010,12,20,15,51,5.00
2010,12,20,15,52,5.00
2010,12,20,15,53,5.00
2010,12,20,15,54,3.50
2010,12,20,15,55,0.00
2010,12,20,15,56,0.00
2010,12,20,15,57,0.00
2010,12,20,15,58,0.00
2010,12,20,15,59,0.00
2010,12,20,16,00,1.70
2010,12,20,16,01,2.50
2010,12,20,16,02,0.00
2010,12,20,16,03,0.00
2010,12,20,16,04,0.00
2010,12,20,16,05,1.00
2010,12,20,16,06,5.00
2010,12,20,16,07,5.00
2010,12,20,16,08,5.00
2010,12,20,16,09,5.00
2010,12,20,16,10,4.50
2010,12,20,16,11,0.00
2010,12,20,16,12,0.00
2010,12,20,16,13,0.00
2010,12,20,16,14,0.00
2010,12,20,16,15,0.00
2010,12,20,16,16,0.00
2010,12,20,16,17,0.00
2010,12,20,16,18,0.00
2010,12,20,16,19,0.00
2010,12,20,16,20,0.00
2010,12,20,16,21,0.00
2010,12,20,16,22,0.00
2010,12,20,16,23,0.00
2010,12,20,16,24,0.00
2010,12,20,16,25,0.00
2010,12,20,16,26,0.00
2010,12,20,16,27,0.00
2010,12,20,16,28,0.00
2010,12,20,16,29,0.00
2010,12,20,16,30,0.00
2010,12,20,16,31,0.00
2010,12,20,16,32,0.00
2010,12,20,16,33,0.00
2010,12,20,16,34,0.00
2010,12,20,16,35,0.00
2010,12,20,16,36,0.00
2010,12,20,16,37,0.00
2010,12,20,16,38,0.00
2010,12,20,16,39,0.00
2010,12,20,16,40,0.00
2010,12,20,16,41,0.00
2010,12,20,16,42,0.00
2010,12,20,16,43,0.00
2010,12,20,16,44,0.00
2010,12,20,16,45,0.00
2010,12,20,16,46,0.00
2010,12,20,16,47,0.00
2010,12,20,16,48,0.00
2010,12,20,16,49,0.00
2010,12,20,16,50,0.00
2010,12,20,16,51,0.00
2010,12,20,16,52,0.00
2010,12,20,16,53,0.00
2010,12,20,16,54,0.00
2010,12,20,16,55,0.00
2010,12,20,16,56,0.00
2010,12,20,16,57,0.00
2010,12,20,16,58,0.00
2010,12,20,16,59,0.00
2010,12,20,17,00,0.00
2010,12,20,17,01,0.00
2010,12,20,17,02,0.00
2010,12,20,17,03,0.00
2010,12,20,17,04,0.00
2010,12,20,17,05,0.00
2010,12,20,17,06,0.00
2010,12,20,17,07,0.00
2010,12,20,17,08,0.00
2010,12,20,17,09,0.00
2010,12,20,17,10,0.00
2010,12,20,17,11,0.00
2010,12,20,17,12,0.00
2010,12,20,17,13,0.00
2010,12,20,17,14,0.00
2010,12,20,17,15,0.00
2010,12,20,17,16,0.00
2010,12,20,17,17,0.00
2010,12,20,17,18,0.00
2010,12,20,17,19,0.00
2010,12,20,17,20,0.00
2010,12,20,17,21,0.00
2010,12,20,17,22,0.00
2010,12,20,17,23,0.00
2010,12,20,17,24,0.00
2010,12,20,17,25,0.00
2010,12,20,17,26,0.00
2010,12,20,17,27,0.00
2010,12,20,17,28,0.00
2010,12,20,17,29,0.00
2010,12,20,17,30,0.00
2010,12,20,17,31,0.00
2010,12,20,17,32,0.00
2010,12,20,17,33,0.00
2010,12,20,17,34,0.00
2010,12,20,17,35,0.00
2010,12,20,17,36,0.00
2010,12,20,17,37,0.00
2010,12,20,17,38,0.00
2010,12,20,17,39,0.00
2010,12,20,17,40,0.00
2010,12,20,17,41,0.00
2010,12,20,17,42,0.00
2010,12,20,17,43,0.00
2010,12,20,17,44,0.00
2010,12,20,17,45,0.00
2010,12,20,17,46,0.00